STARLINK-11185 [DTC] (62588 NORAD) Tracking and Keplerian Element Data

This shows tracking and keplerian element data for the satellite.

Feedback or suggestion? Click here.




ElementValue
Catalog62588
NameSTARLINK-11185 [DTC]
Epoch Orbit447
Epoch Day34.93280533
Epoch Year2025
RAAN12.1248
Inclination42.9993
Eccentricity0.0001175
Argument of Perigee264.3281
Mean Anonmoly95.7455
Mean Motion15.7785175
Decay Rate9.76E-06
L11 62588U 25008B 25034.93280533 .00000976 00000+0 84710-5 0 9997
L22 62588 42.9993 12.1248 0001175 264.3281 95.7455 15.77851750 4471



Live tracking and technical data element details for STARLINK-11185 [DTC] (NORAD 62588). STARLINK-11185 [DTC] can be tracked NOW for your location showing map with azimuth and elevation plus other details from your city location.







IsCatalogInMostPopularTable: catalog: 62588, numindb: 21
Update: records affected: 1



GetName: 62588 STARLINK-11185 [DTC]

Hit Count: updated at: Sun, 18 May 2025 23:00:29 GMT